Regional Weather Roundup
Issued by NWS

Home | Current Version | Previous Version | Graphics & Text | Print | Product List | Glossary On
Versions: 1 2 3 4 5 6 7 8 9 10 11 12 13 14 15 16 17 18 19 20 21 22 23 24 25 26 27 28 29 30 31 32 33 34 35 36 37 38 39 40 41 42 43 44 45 46 47 48 49 50
000
ASUS43 KLOT 020908
RWRIL

ILLINOIS REGIONAL WEATHER ROUNDUP
NATIONAL WEATHER SERVICE CHICAGO/ROMEOVILLE IL
400 AM CDT THU JUL 02 2015

NOTE: "FAIR" INDICATES FEW OR NO CLOUDS BELOW 12,000 FEET WITH NO
SIGNIFICANT WEATHER AND/OR OBSTRUCTIONS TO VISIBILITY.

* THESE STATIONS ARE NOT UNDER NWS QUALITY CONTROL. THEY ALSO MAY NOT
  REPORT WEATHER SUCH AS PRECIPITATION OR FOG.

ILZ001-002-007-009-015-016-024-021000-
NORTHWEST ILLINOIS

CITY           SKY/WX    TMP DP  RH WIND       PRES   REMARKS
MOLINE         CLEAR     58  53  84 NE9       29.96F
STERLING*      CLEAR     52  50  93 NE6       29.98F
$$

ILZ003-004-008-010-011-017-018-021000-
NORTH CENTRAL ILLINOIS

CITY           SKY/WX    TMP DP  RH WIND       PRES   REMARKS
ROCKFORD       CLEAR     51  47  86 NE6       30.02F
$$

ILZ005-006-012>014-019>023-021000-
NORTHEAST ILLINOIS

CITY           SKY/WX    TMP DP  RH WIND       PRES   REMARKS
CHICAGO-OHARE  CLOUDY    54  51  90 NE10      29.98F
CHICAGO-MIDWAY PTCLDY    56  52  86 NE8       29.97F
AURORA         PTCLDY    51  48  89 NE7       29.98F
JOLIET*        PTCLDY    54  52  93 CALM      29.98F
WAUKEGAN       CLEAR     45  45 100 CALM      30.00S
DUPAGE AIRPORT CLEAR     48  47  96 N7        29.98F
WHEELING       CLOUDY    52  49  89 NE3       30.01S
ROMEOVILLE*    MOCLDY    53  51  93 NE7       29.98F
NORTHERLY ISL    N/A     55  52  89 MISG        N/A
$$

LMZ740>746-021000-
SOUTHERN LAKE MICHIGAN

STATION/POSITION SKY/WX   TEMP    WIND        PRES    VSBY  WAVE
                          AIR SEA DIR/SP/G                  HT/PER
                          (F)     (DEG/KT/KT) (MB)    (MI)  (FT/S)
HARRISON CRIB              54      40/  8/ 10   N/A
BURNHAM HARBOR             55     350/  7/ 10   N/A
CALUMET HARBOR             56     340/  7/ 11   N/A
BURNS HARBOR               60      50/ 10/ 12 1015.6F
MICHIGAN CITY              58      20/ 11/ 12   N/A
MICHIGAN CITY 6N           60 64   50/ 10/ 14   N/A           3/ 5
ST. JOSEPH                 58 63                N/A           3/ 5
$$

ILZ025>027-034>036-040-047-049-050-058-095>099-021000-
WEST-CENTRAL ILLINOIS

CITY           SKY/WX    TMP DP  RH WIND       PRES   REMARKS
QUINCY         CLOUDY    67  64  90 E13       29.88S
$$

ILZ028>032-037-038-041>044-048-051>054-059>061-021000-
CENTRAL ILLINOIS

CITY           SKY/WX    TMP DP  RH WIND       PRES   REMARKS
BLOOMINGTON    MOCLDY    57  56  97 NE10      29.94F
DECATUR        CLOUDY    60  55  83 NE10      29.90F
PEORIA         MOCLDY    62  53  72 NE10      29.93F
SPRINGFIELD    CLOUDY    64  56  75 NE13      29.90F
TAYLORVILLE    NOT AVBL
$$

ILZ033-039-045-046-055>057-062-063-021000-
EAST-CENTRAL ILLINOIS

CITY           SKY/WX    TMP DP  RH WIND       PRES   REMARKS
CHAMPAIGN      MOCLDY    59  54  83 NE8       29.91F
MATTOON        CLOUDY    60  55  83 NE12      29.88F
$$

ILZ079-100>102-021000-
SOUTHWEST ILLINOIS

CITY           SKY/WX    TMP DP  RH WIND       PRES   REMARKS
BELLEVILLE     CLOUDY    71  71 100 NE1       29.83R
CAHOKIA*       CLOUDY    73  70  90 CALM      29.84R
$$

ILZ064>066-069>071-074>076-080>082-084>086-088>090-092>094-021000-
SOUTH-CENTRAL ILLINOIS

CITY           SKY/WX    TMP DP  RH WIND       PRES   REMARKS
CARBONDALE     CLOUDY    71  69  93 S6        29.83F
MT. VERNON     CLOUDY    72  64  78 S9        29.85F
CENTRALIA*     CLOUDY    72  69  92 CALM      29.84S FOG
$$

ILZ067-068-072-073-078-083-087-091-021000-
SOUTHEAST ILLINOIS

CITY           SKY/WX    TMP DP  RH WIND       PRES   REMARKS
LAWRENCEVILLE  CLOUDY    70  69  97 NE3       29.85F
$$

ABBREVIATIONS USED IN REMARKS
   TC - TEMPERATURE IN CELSIUS
  WCI - WIND CHILL INDEX
   HX - HEAT INDEX
  VSB - VISIBILITY
$$




USA.gov is the U.S. government's official web portal to all federal, state and local government web resources and services.